Weather History for Grand Marais Airport, MN

Change the Weather History Date:

Friday, July 26, 2013

  Actual Average Record
Temperature  
Mean Temperature 48 °F -  
Max Temperature 55 °F 71 °F 84 °F (2003)
Min Temperature 42 °F 51 °F 39 °F (2001)
Degree Days  
Heating Degree Days 16    
Moisture  
Dew Point 45 °F    
Average Humidity 85    
Maximum Humidity 94    
Minimum Humidity 76    
Precipitation  
Precipitation 0.19 in - - ()
Sea Level Pressure  
Sea Level Pressure 29.97 in    
Wind  
Wind Speed 7 mph (North)    
Max Wind Speed 20 mph    
Max Gust Speed 28 mph    
Visibility 7 miles    
Events Fog , Rain , Thunderstorm    
Averages and records for this station are not official NWS values.
T = Trace of Precipitation, MM = Missing Value Source: NWS Daily Summary

Daily Weather History Graph

Daily Weather History Graph

Search for Another Location

Airport:

Trip Planner

Search our weather history database for the weather conditions in past years. The results will help you decide how hot, cold, wet, or windy it might be!

Date:

Astronomy

Jul. 26, 2013 Rise Set
Actual Time 5:31 AM CDT 8:44 PM CDT
Civil Twilight 4:53 AM CDT 9:21 PM CDT
Nautical Twilight 4:05 AM CDT 10:09 PM CDT
Astronomical Twilight 3:03 AM CDT 11:10 PM CDT
Moon 10:30 PM CDT (7/26) 10:33 AM CDT (7/26)
Length of Visible Light 16h 27m
Length of Day
15h 13m
Waning Gibbous, 80% of the Moon is Illuminated
Jul 26
Waning Gibbous
Jul 29
Last Quarter
Aug 6
New
Aug 14
First Quarter
Aug 20
Full

Hourly Weather History & Observations

Time (CDT) Temp. Windchill Dew Point Humidity Pressure Visibility Wind Dir Wind Speed Gust Speed Precip Events Conditions
12:14 AM 55.4 °F - 51.8 °F 88% 29.90 in 0.2 mi ENE 3.5 mph - N/A Fog Fog
12:34 AM 55.4 °F - 51.8 °F 88% 29.91 in 0.5 mi Calm Calm - N/A Fog Fog
12:53 AM 55.4 °F - 51.8 °F 88% 29.91 in 0.5 mi North 3.5 mph - N/A Fog Fog
1:13 AM 55.4 °F - 51.8 °F 88% 29.91 in 0.5 mi Calm Calm - N/A Fog Fog
1:34 AM 55.4 °F - 51.8 °F 88% 29.90 in 1.5 mi Calm Calm - N/A   Overcast
1:54 AM 55.4 °F - 51.8 °F 88% 29.90 in 2.5 mi Calm Calm - N/A   Overcast
2:13 AM 55.4 °F - 51.8 °F 88% 29.90 in 4.0 mi Calm Calm - N/A   Overcast
2:33 AM 55.4 °F - 51.8 °F 88% 29.90 in 3.0 mi Calm Calm - N/A   Overcast
2:54 AM 55.4 °F - 51.8 °F 88% 29.89 in 3.0 mi Calm Calm - N/A   Overcast
3:13 AM 55.4 °F - 51.8 °F 88% 29.89 in 3.0 mi Calm Calm - N/A   Overcast
3:33 AM 55.4 °F - 51.8 °F 88% 29.89 in 2.0 mi Calm Calm - N/A   Overcast
3:53 AM 55.4 °F - 51.8 °F 88% 29.90 in 3.0 mi North 3.5 mph - N/A   Overcast
4:14 AM 53.6 °F - 51.8 °F 94% 29.88 in 2.0 mi North 5.8 mph - N/A Rain Light Rain
4:33 AM 53.6 °F - 51.8 °F 94% 29.89 in 3.0 mi NNE 4.6 mph - N/A   Overcast
4:53 AM 53.6 °F - 50.0 °F 88% 29.90 in 7.0 mi NNE 5.8 mph - N/A Rain , Thunderstorm Light Thunderstorms and Rain
5:14 AM 53.6 °F - 50.0 °F 88% 29.90 in 7.0 mi NNE 5.8 mph - N/A   Light Drizzle
5:33 AM 53.6 °F - 50.0 °F 88% 29.90 in 7.0 mi NNE 9.2 mph - N/A   Light Drizzle
5:54 AM 53.6 °F - 50.0 °F 88% 29.90 in 5.0 mi NE 6.9 mph - 0.06 in Rain Heavy Rain
6:13 AM 51.8 °F - 48.2 °F 88% 29.90 in 10.0 mi NNE 8.1 mph - N/A Rain Rain
6:33 AM 51.8 °F - 48.2 °F 88% 29.91 in 4.0 mi NNE 6.9 mph - N/A Rain Light Rain
6:54 AM 51.8 °F - 48.2 °F 88% 29.92 in 10.0 mi NE 6.9 mph - N/A   Overcast
7:13 AM 51.8 °F - 46.4 °F 82% 29.92 in 10.0 mi NNE 10.4 mph - N/A Thunderstorm Overcast
7:34 AM 51.8 °F - 46.4 °F 82% 29.93 in 5.0 mi NNE 5.8 mph - N/A   Overcast
7:53 AM 51.8 °F - 48.2 °F 88% 29.93 in 2.0 mi North 9.2 mph - N/A   Overcast
8:13 AM 51.8 °F - 48.2 °F 88% 29.93 in 1.0 mi North 8.1 mph - N/A   Drizzle
8:34 AM 50.0 °F - 46.4 °F 87% 29.93 in 3.0 mi North 10.4 mph - N/A Thunderstorm Unknown
8:53 AM 50.0 °F - 46.4 °F 87% 29.93 in 4.0 mi NNE 10.4 mph - N/A   Overcast
9:14 AM 50.0 °F - 46.4 °F 87% 29.94 in 7.0 mi North 9.2 mph - N/A   Overcast
9:33 AM 50.0 °F - 46.4 °F 87% 29.95 in 10.0 mi North 6.9 mph - N/A   Overcast
9:53 AM 50.0 °F - 46.4 °F 87% 29.95 in 10.0 mi North 10.4 mph - N/A   Overcast
10:14 AM 50.0 °F - 46.4 °F 87% 29.95 in 7.0 mi North 9.2 mph - 0.01 in Rain Rain
10:34 AM 50.0 °F - 46.4 °F 87% 29.96 in 4.0 mi North 11.5 mph - 0.05 in Rain Rain
10:53 AM 50.0 °F - 46.4 °F 87% 29.96 in 7.0 mi North 12.7 mph - 0.09 in Rain Light Rain
11:14 AM 50.0 °F - 46.4 °F 87% 29.96 in 5.0 mi North 13.8 mph 18.4 mph N/A   Light Drizzle
11:34 AM 50.0 °F - 46.4 °F 87% 29.96 in 7.0 mi NNW 12.7 mph 19.6 mph N/A Rain Light Rain
11:53 AM 50.0 °F - 46.4 °F 87% 29.97 in 5.0 mi North 9.2 mph - 0.02 in   Drizzle
12:14 PM 48.2 °F - 44.6 °F 87% 29.98 in 7.0 mi NNW 8.1 mph - N/A   Light Drizzle
12:33 PM 48.2 °F - 44.6 °F 87% 29.98 in 10.0 mi NNW 13.8 mph 18.4 mph N/A   Light Drizzle
12:54 PM 48.2 °F - 44.6 °F 87% 29.99 in 10.0 mi North 16.1 mph 19.6 mph N/A Rain Light Rain
1:13 PM 48.2 °F - 42.8 °F 82% 30.00 in 7.0 mi North 13.8 mph 21.9 mph N/A   Drizzle
1:34 PM 48.2 °F - 44.6 °F 87% 30.00 in 5.0 mi North 12.7 mph 20.7 mph 0.01 in   Drizzle
1:53 PM 48.2 °F - 44.6 °F 87% 30.00 in 5.0 mi North 12.7 mph 19.6 mph 0.02 in Rain Light Rain
2:14 PM 48.2 °F - 42.8 °F 82% 30.00 in 7.0 mi NNW 19.6 mph 25.3 mph N/A Rain Light Rain
2:33 PM 48.2 °F - 44.6 °F 87% 30.00 in 7.0 mi NNW 13.8 mph 19.6 mph N/A   Light Drizzle
2:53 PM 48.2 °F - 42.8 °F 82% 30.00 in 10.0 mi North 16.1 mph 24.2 mph N/A   Overcast
3:14 PM 46.4 °F 39.8 °F 41.0 °F 81% 30.01 in 10.0 mi North 16.1 mph 24.2 mph N/A   Overcast
3:33 PM 46.4 °F 39.5 °F 41.0 °F 81% 30.02 in 10.0 mi North 17.3 mph 26.5 mph N/A   Overcast
3:53 PM 46.4 °F 39.2 °F 39.2 °F 76% 30.01 in 10.0 mi NNW 18.4 mph 27.6 mph N/A   Overcast
4:14 PM 46.4 °F 39.8 °F 39.2 °F 76% 30.01 in 10.0 mi North 16.1 mph 24.2 mph N/A   Overcast
4:33 PM 44.6 °F 36.6 °F 39.2 °F 81% 30.01 in 10.0 mi NNW 19.6 mph 27.6 mph N/A   Overcast
4:54 PM 44.6 °F 38.4 °F 39.2 °F 81% 30.01 in 10.0 mi North 12.7 mph 21.9 mph N/A   Overcast
5:13 PM 44.6 °F 37.2 °F 39.2 °F 81% 30.01 in 10.0 mi North 17.3 mph 25.3 mph N/A   Overcast
5:34 PM 44.6 °F 37.8 °F 39.2 °F 81% 30.03 in 10.0 mi North 15.0 mph 25.3 mph N/A   Overcast
5:53 PM 44.6 °F 39.2 °F 39.2 °F 81% 30.04 in 7.0 mi North 10.4 mph 18.4 mph N/A   Overcast
6:14 PM 44.6 °F 37.4 °F 39.2 °F 81% 30.04 in 10.0 mi NNW 16.1 mph 20.7 mph N/A   Overcast
6:33 PM 44.6 °F 37.2 °F 37.4 °F 76% 30.04 in 10.0 mi North 17.3 mph 26.5 mph N/A   Overcast
6:53 PM 42.8 °F 34.5 °F 37.4 °F 81% 30.04 in 10.0 mi North 18.4 mph 25.3 mph N/A   Overcast
7:14 PM 42.8 °F 35.1 °F 37.4 °F 81% 30.04 in 10.0 mi NNW 16.1 mph 27.6 mph N/A   Overcast
7:33 PM 44.6 °F 36.9 °F 37.4 °F 76% 30.04 in 10.0 mi North 18.4 mph 26.5 mph N/A   Overcast
7:54 PM 42.8 °F 35.1 °F 37.4 °F 81% 30.04 in 10.0 mi NNW 16.1 mph 24.2 mph N/A   Overcast
8:14 PM 42.8 °F 36.2 °F 37.4 °F 81% 30.04 in 10.0 mi NNW 12.7 mph 25.3 mph N/A   Overcast
8:34 PM 42.8 °F 36.6 °F 37.4 °F 81% 30.04 in 10.0 mi NNW 11.5 mph 20.7 mph N/A   Overcast
8:53 PM 42.8 °F 37.5 °F 37.4 °F 81% 30.04 in 10.0 mi NNW 9.2 mph 17.3 mph N/A   Overcast
9:13 PM 42.8 °F 37.0 °F 37.4 °F 81% 30.03 in 10.0 mi NNW 10.4 mph 20.7 mph N/A   Overcast
9:34 PM 42.8 °F 37.0 °F 37.4 °F 81% 30.04 in 7.0 mi NNW 10.4 mph 17.3 mph N/A   Overcast
9:53 PM 42.8 °F 36.6 °F 37.4 °F 81% 30.03 in 7.0 mi NNW 11.5 mph 17.3 mph N/A   Overcast
10:13 PM 42.8 °F 38.6 °F 37.4 °F 81% 30.02 in 10.0 mi NNW 6.9 mph - N/A   Overcast
10:34 PM 42.8 °F 37.5 °F 37.4 °F 81% 30.02 in 10.0 mi NW 9.2 mph - N/A   Overcast
10:53 PM 42.8 °F 37.5 °F 39.2 °F 87% 30.01 in 7.0 mi NNW 9.2 mph - N/A   Overcast
11:14 PM 42.8 °F 37.5 °F 39.2 °F 87% 30.00 in 7.0 mi NW 9.2 mph 16.1 mph N/A   Overcast
11:33 PM 42.8 °F 37.5 °F 39.2 °F 87% 29.99 in 4.0 mi NNW 9.2 mph - N/A   Overcast
11:54 PM 42.8 °F 37.5 °F 39.2 °F 87% 29.99 in 3.0 mi NW 9.2 mph - N/A   Overcast